Regional Weather Roundup
Issued by NWS

Home | Current Version | Previous Version | Graphics & Text | Print | Product List | Glossary On
Versions: 1 2 3 4 5 6 7 8 9 10 11 12 13 14 15 16 17 18 19 20 21 22 23 24 25 26 27 28 29 30 31 32 33 34 35 36 37 38 39 40 41 42 43 44 45 46 47 48 49 50
000
ASUS43 KDTX 241810
RWRMI
MICHIGAN HOURLY REGIONAL WEATHER ROUNDUP
NATIONAL WEATHER SERVICE DETROIT/PONTIAC MI
200 PM EDT WED MAY 24 2017

NOTE: "FAIR" INDICATES FEW OR NO CLOUDS BELOW 12,000 FEET WITH NO
SIGNIFICANT WEATHER AND/OR OBSTRUCTION TO VISIBILITY.

MIZ047>049-052>055-059>063-066>070-074>076-081>083-241900-
SOUTHEAST LOWER MICHIGAN

CITY           SKY/WX    TMP DP  RH WIND       PRES   REMARKS
ADRIAN         LGT RAIN  62  58  86 E18G28    29.55S
6HR MIN TEMP:  57; 6HR MAX TEMP:  68; 6HR PCP: TRACE;

ALMA           CLOUDY    64  56  78 E16       29.61S
ANN ARBOR      LGT RAIN  62  59  90 E8        29.57S
BAD AXE        MOSUNNY   65  54  66 E8G20     29.64R
6HR MIN TEMP:  54; 6HR MAX TEMP:  65;

CARO           PTSUNNY   69  56  62 E8        29.59F
DETROIT CITY   LGT RAIN  62  59  90 E7        29.59F
6HR MIN TEMP:  58; 6HR MAX TEMP:  63; 6HR PCP: TRACE;

DETROIT        LGT RAIN  63  61  93 E7        29.58F
6HR MIN TEMP:  60; 6HR MAX TEMP:  69; 6HR PCP:  0.08;

FLINT          CLOUDY    68  52  56 E12       29.57F
6HR MIN TEMP:  57; 6HR MAX TEMP:  70; 6HR PCP: TRACE;

GROSSE ILE     LGT RAIN  62  60  93 E5        29.57F
6HR MIN TEMP:  57; 6HR MAX TEMP:  64; 6HR PCP:  0.04;

HILLSDALE      CLOUDY    66  55  68 E15G22    29.52F
HOWELL         CLOUDY    66  53  61 SE15      29.57F
6HR MIN TEMP:  57; 6HR MAX TEMP:  67;


CITY           SKY/WX    TMP DP  RH WIND       PRES   REMARKS
JACKSON        CLOUDY    69  57  65 E10       29.54F
6HR MIN TEMP:  55; 6HR MAX TEMP:  69;

LAMBERTVILLE   RAIN      60  58  95 E7        29.55F
6HR MIN TEMP:  58; 6HR MAX TEMP:  64;

LANSING        CLOUDY    65  55  70 NE10      29.57F
6HR MIN TEMP:  56; 6HR MAX TEMP:  66; 6HR PCP:  0.01;

LAPEER         PTSUNNY   69  53  55 SE9G20    29.59F
6HR MIN TEMP:  56; 6HR MAX TEMP:  71;

MASON          CLOUDY    67  57  71 E13G20    29.56F
MONROE         LGT RAIN  60  57  88 E6        29.56F
6HR MIN TEMP:  59; 6HR MAX TEMP:  64; 6HR PCP:  0.13;

MT. CLEMENS    PTSUNNY   63  59  88 E6        29.59S
6HR MIN TEMP:  57; 6HR MAX TEMP:  64; 6HR PCP: TRACE;

PONTIAC        CLOUDY    65  55  70 SE12      29.58S
6HR MIN TEMP:  57; 6HR MAX TEMP:  68;

PORT HOPE        N/A     52  49  89 NE15      29.64F
6HR MIN TEMP:  51; 6HR MAX TEMP:  53;

PORT HURON     CLOUDY    64  54  68 E9        29.61S
TRI CITIES     CLOUDY    60  55  83 NE20      29.62S
6HR MIN TEMP:  56; 6HR MAX TEMP:  61;

MIDLAND        CLOUDY    64  52  66 NE18G24   29.62S
6HR MIN TEMP:  55; 6HR MAX TEMP:  65;

TROY           LGT RAIN  64  56  76 E6G16     29.61S
SAGINAW HB     CLOUDY    63  52  67 N14G21    29.60S
$$
MIZ043>046-050>051-056>058-064>065-071>073-077>080-241900-
SOUTHWEST LOWER MICHIGAN

CITY           SKY/WX    TMP DP  RH WIND       PRES   REMARKS
BATTLE CREEK   CLOUDY    66  57  72 NE12      29.54F
6HR MIN TEMP:  56; 6HR MAX TEMP:  70; 6HR PCP: TRACE;

BENTON HARBOR  PTSUNNY   68  55  63 N8        29.51F
6HR MIN TEMP:  58; 6HR MAX TEMP:  71;

BIG RAPIDS       N/A    N/A N/A N/A MISG        N/A
COLDWATER      CLOUDY    68  60  75 NE6       29.51F
6HR MIN TEMP:  57; 6HR MAX TEMP:  68;

FREMONT        CLOUDY    64  54  70 NE9       29.58F
HOLLAND        PTSUNNY   70  56  61 E9        29.54F
6HR MIN TEMP:  57; 6HR MAX TEMP:  70; 6HR PCP: TRACE;

GRAND RAPIDS   PTSUNNY   68  57  68 E16       29.55F
6HR MIN TEMP:  57; 6HR MAX TEMP:  69; 6HR PCP: TRACE;

IONIA          LGT RAIN  64  57  78 NE9G18    29.56F
6HR MIN TEMP:  56; 6HR MAX TEMP:  64;

KALAMAZOO      CLOUDY    71  51  49 VRB5      29.52F
6HR MIN TEMP:  56; 6HR MAX TEMP:  72; 6HR PCP: TRACE;

LUDINGTON      CLOUDY    56  55  97 N10       29.62F
6HR MIN TEMP:  53; 6HR MAX TEMP:  60; 6HR PCP:  0.05;

MARSHALL       CLOUDY    69  58  68 NE8       29.52F
6HR MIN TEMP:  55; 6HR MAX TEMP:  69;

MOUNT PLEASANT MOSUNNY   68  55  61 NE14      29.59F
6HR MIN TEMP:  55; 6HR MAX TEMP:  68;

MUSKEGON       PTSUNNY   71  51  49 E16       29.56F
6HR MIN TEMP:  57; 6HR MAX TEMP:  71;

SOUTH HAVEN    CLOUDY    71  57  61 NE10      29.52F
$$
MIZ016>042-241900-
NORTHERN LOWER MICHIGAN

CITY           SKY/WX    TMP DP  RH WIND       PRES   REMARKS
ALPENA         CLOUDY    63  53  70 NE12      29.71S
6HR MIN TEMP:  51; 6HR MAX TEMP:  64; 6HR PCP: TRACE;

BEAVER ISLAND  CLOUDY    51  50  96 E14G20    29.72S
6HR MIN TEMP:  49; 6HR MAX TEMP:  51;

BELLAIRE       MOSUNNY   64  52  64 NE7       29.67F
6HR MIN TEMP:  53; 6HR MAX TEMP:  64;

CADILLAC       LGT RAIN  60  54  80 NE9G16    29.64F
CHARLEVOIX     MOSUNNY   58  56  91 NE7       29.71F
6HR MIN TEMP:  51; 6HR MAX TEMP:  58;

FRANKFORT      PTSUNNY   60  53  77 N6        29.65F
GAYLORD        PTSUNNY   59  51  75 E7        29.69S
6HR MIN TEMP:  53; 6HR MAX TEMP:  60; 6HR PCP:  0.03;

GRAYLING       CLOUDY    62  53  71 E12       29.68S
HARBOR SPRINGS CLOUDY    56  53  92 E14       29.71R
HOUGHTON LAKE  PTSUNNY   62  53  72 NE18      29.65F
6HR MIN TEMP:  53; 6HR MAX TEMP:  63; 6HR PCP:  0.01;

MANISTEE       LGT RAIN  54  52  93 NW7       29.64S
OSCODA         CLOUDY    60  51  74 N13G20    29.68S
6HR MIN TEMP:  52; 6HR MAX TEMP:  61;

PELLSTON       CLOUDY    53  49  86 NE9       29.72S
6HR MIN TEMP:  50; 6HR MAX TEMP:  54; 6HR PCP:  0.01;

ROGERS CITY    CLOUDY    51  49  92 NE6       29.74S
TRAVERSE CITY  CLOUDY    57  54  89 N7        29.65F
6HR MIN TEMP:  50; 6HR MAX TEMP:  60; 6HR PCP:  0.04;

$$
MIZ007>008-015-241900-
EASTERN UPPER MICHIGAN

CITY           SKY/WX    TMP DP  RH WIND       PRES   REMARKS
KINROSS        CLOUDY    52  50  93 NE9       29.74F
MACKINAC ISLAN CLOUDY    52  52 100 NE13      29.72F
6HR MIN TEMP:  48; 6HR MAX TEMP:  52; 6HR PCP:  0.02;

NEWBERRY       CLOUDY    55  51  87 E10       29.74S
6HR MIN TEMP:  47; 6HR MAX TEMP:  56; 6HR PCP:  0.02;

S. S. MARIE    CLOUDY    56  50  80 E3        29.75S
6HR MIN TEMP:  50; 6HR MAX TEMP:  56; 6HR PCP:  0.04;

MUNISING         N/A     46  44  93 NE10      29.76R
6HR MIN TEMP:  42; 6HR MAX TEMP:  49;

$$
MIZ004>006-011>014-085-241900-
CENTRAL UPPER MICHIGAN

CITY           SKY/WX    TMP DP  RH WIND       PRES   REMARKS
MANISTIQUE     CLOUDY    54  50  87 E7        29.72F
6HR MIN TEMP:  48; 6HR MAX TEMP:  55; 6HR PCP:  0.03;

ESCANABA       CLOUDY    54  50  86 NE6       29.72F
6HR MIN TEMP:  46; 6HR MAX TEMP:  54; 6HR PCP: TRACE;

MENOMINEE      LGT RAIN  51  49  92 NE18      29.72S
6HR MIN TEMP:  47; 6HR MAX TEMP:  52; 6HR PCP: TRACE;

SAWYER-GWINN   CLOUDY    48  45  87 N8        29.76S
$$
MIZ001>003-009>011-084-241900-
WESTERN UPPER MICHIGAN

CITY           SKY/WX    TMP DP  RH WIND       PRES   REMARKS
IRON MOUNTAIN  CLOUDY    53  47  79 NE6       29.72F
6HR MIN TEMP:  47; 6HR MAX TEMP:  53; 6HR PCP: TRACE;

HOUGHTON       CLOUDY    51  43  74 E12       29.79S
6HR MIN TEMP:  50; 6HR MAX TEMP:  53; 6HR PCP: TRACE;

COPPER HARBOR    N/A     45  40  82 NE6       29.81S
6HR MIN TEMP:  44; 6HR MAX TEMP:  47;

IRONWOOD       CLOUDY    52  43  71 NE8       29.78S
6HR MIN TEMP:  44; 6HR MAX TEMP:  54; 6HR PCP:  0.01;

$$

ABBREVIATIONS USED IN REMARKS
   TC - TEMPERATURE IN CELSIUS
  WCI - WIND CHILL INDEX
   HX - HEAT INDEX
  VSB - VISIBILITY




USA.gov is the U.S. government's official web portal to all federal, state and local government web resources and services.